Theta_e
301 301 302 302 302 302 302 302 302 302 302 298 296 298 293 293 289 302 303 306 303 293 285 288 285 284 287 293 292 293 291 289 290 287 291 289 291 289 288 288 287 289 288 289 287 289 286 287 284 284 285 286 288 290 292 294 293 294 288 294 295 306 286 284 284 286 287 289 290 292 292 292 289 290 289 288 287 287 284 281 282 283 284 283 281 280 280
301 301 301 301 302 302 302 302 302 302 302 299 298 294 292 293 293 297 303 307 303 291 282 283 284 286 290 290 289 293 291 291 288 285 290 291 289 287 289 291 291 289 293 290 287 291 280 287 286 283 286 285 292 292 294 294 292 291 290 290 297 288 287 283 278 279 283 284 287 287 290 290 286 284 287 289 289 289 289 288 286 285 283 284 280 277 282
301 301 301 301 301 302 302 302 302 302 302 302 298 292 294 293 296 295 299 304 300 286 287 284 284 285 285 286 286 288 291 291 292 290 289 293 293 292 289 292 294 292 294 292 292 293 289 284 289 286 287 290 293 293 295 296 292 295 296 308 300 290 285 282 277 274 273 275 274 278 282 285 285 288 289 290 289 289 288 284 283 281 283 286 281 277 283
300 300 301 301 301 301 301 302 302 302 302 302 297 295 294 292 284 290 295 297 296 293 294 289 285 284 285 284 287 289 287 293 294 294 292 294 294 294 294 295 295 292 292 289 289 289 291 288 286 286 287 292 296 294 295 294 294 299 303 305 298 289 290 285 281 279 278 279 282 286 286 285 283 287 289 288 290 289 288 284 281 281 281 282 284 292 291
300 300 300 300 301 301 301 301 301 301 302 303 297 296 293 291 284 286 285 293 293 290 292 287 287 284 289 283 288 286 289 291 294 295 288 295 294 295 294 294 290 289 290 287 288 289 289 290 289 289 289 292 294 295 295 294 297 310 306 306 294 289 283 287 287 287 285 285 287 289 288 285 285 287 288 287 289 289 287 284 282 285 285 282 287 293 295
300 300 300 300 300 301 301 301 301 301 301 303 296 290 293 287 291 293 296 288 285 286 287 292 288 289 290 286 290 288 289 291 289 293 294 295 296 289 291 294 294 294 292 291 283 287 288 289 285 292 293 293 294 294 295 295 308 305 299 300 295 290 285 286 289 288 291 291 292 290 288 287 287 287 288 287 288 288 286 287 288 288 285 281 290 294 296
301 300 300 300 300 300 301 301 301 301 301 301 295 291 295 294 294 294 297 288 291 291 291 293 291 289 291 288 289 287 289 289 292 292 290 294 295 295 283 290 294 295 295 291 285 289 281 281 289 290 291 293 291 291 295 301 300 298 298 298 295 291 284 289 291 289 290 292 293 292 288 287 289 288 287 288 288 287 288 290 289 290 287 290 296 294 297
301 301 300 301 300 300 300 301 301 301 301 299 294 294 291 289 288 288 294 293 291 292 292 291 292 286 290 285 289 290 290 289 291 293 291 287 292 296 290 291 295 294 296 294 290 291 291 291 288 295 294 291 292 290 292 292 299 297 298 297 295 290 283 292 290 285 287 292 293 292 288 288 287 288 287 289 288 288 289 289 290 290 290 294 296 293 294
301 301 300 300 300 300 300 301 301 301 301 293 291 293 294 293 295 295 289 287 290 291 290 289 290 287 288 285 290 291 290 289 291 292 297 294 292 294 288 295 295 295 297 296 294 296 295 294 295 297 297 291 294 289 293 300 292 296 294 294 295 291 285 290 288 284 283 290 291 291 290 287 287 286 287 287 286 287 288 287 289 287 289 292 293 291 290
301 301 301 301 300 300 300 300 301 300 301 293 292 289 294 295 297 297 293 286 291 287 289 289 290 286 290 291 292 291 290 293 293 288 295 298 299 297 296 296 294 292 295 294 295 296 297 297 299 299 300 301 300 296 297 298 294 292 293 295 291 291 286 284 280 281 280 288 290 290 288 285 283 281 285 287 288 288 289 290 291 290 294 291 287 291 296
301 301 301 301 300 300 300 300 300 301 298 293 291 290 292 291 290 292 293 286 285 286 287 287 287 291 292 293 293 297 296 297 298 290 288 298 298 302 300 297 294 292 294 298 302 302 302 302 302 302 301 300 299 294 297 298 298 296 294 291 291 292 289 286 283 280 282 286 288 287 284 277 277 285 293 294 290 289 288 288 291 293 298 294 292 292 296
302 301 301 301 301 300 300 300 300 300 299 297 296 292 294 295 293 293 289 285 284 288 287 285 287 289 290 293 294 296 295 296 296 298 293 295 298 300 300 298 296 286 298 306 305 304 305 304 302 301 299 296 294 295 295 295 295 297 296 293 289 288 285 284 285 282 284 285 282 281 276 276 285 292 297 298 295 293 292 292 293 294 293 296 297 301 305
302 302 301 301 301 301 300 300 300 300 300 297 296 291 295 297 293 292 292 289 284 287 285 286 289 290 291 292 293 296 298 300 299 298 300 297 297 299 300 298 295 298 305 303 303 300 294 291 289 292 293 292 293 293 292 292 293 295 296 296 290 284 285 284 284 283 282 282 279 275 276 285 292 295 296 297 295 293 293 291 293 294 293 297 299 302 307
302 302 302 301 301 301 300 300 300 300 300 299 294 294 295 295 291 291 292 287 286 289 288 287 288 288 290 291 292 294 298 297 298 299 296 300 298 298 301 301 302 304 304 303 299 292 285 285 282 282 285 286 286 286 291 294 295 294 295 295 294 291 287 285 284 284 281 281 277 279 284 288 290 291 295 293 291 292 288 284 289 292 295 293 296 303 305
303 302 302 302 301 301 301 300 300 300 299 300 295 294 294 295 295 293 294 292 286 289 290 282 287 288 290 290 292 291 292 293 294 294 299 300 300 301 301 304 305 304 302 299 293 290 286 284 280 280 281 279 277 279 289 288 294 295 295 295 294 292 289 288 285 283 282 282 280 279 277 276 281 288 294 298 297 294 292 289 288 294 298 298 292 298 304
303 303 302 302 302 301 301 301 300 300 299 300 296 294 295 297 297 296 294 291 289 283 286 291 292 290 289 289 291 291 290 290 291 292 293 295 297 299 303 305 304 303 303 299 293 286 283 283 281 280 280 281 286 284 281 288 287 292 294 294 294 292 292 289 285 284 282 281 280 280 276 278 284 289 295 298 299 297 294 288 283 291 294 299 297 293 295
302 302 303 302 302 301 301 301 301 300 300 299 294 293 293 297 296 293 291 292 293 286 294 295 294 292 289 289 292 290 292 289 294 288 287 290 294 298 301 304 304 302 300 294 292 286 285 282 283 283 282 287 283 283 288 285 283 286 290 292 290 287 283 284 282 280 280 279 279 279 279 284 294 294 296 297 297 294 289 282 278 291 297 299 299 298 294
302 302 302 302 302 301 301 301 301 301 300 300 296 293 292 297 298 295 294 293 288 289 292 295 292 289 287 289 289 293 295 295 295 295 289 293 295 296 299 300 298 302 302 291 289 284 284 283 283 282 281 290 291 288 280 284 282 279 283 284 283 283 284 283 281 280 280 282 279 280 282 289 294 297 298 298 298 292 283 278 284 292 297 301 299 300 296
302 302 302 302 302 302 301 301 301 301 301 300 297 294 292 295 295 295 294 292 291 286 293 297 296 293 295 298 295 295 295 295 294 288 288 287 291 299 300 300 301 292 298 289 288 285 285 285 289 287 284 284 290 283 287 282 281 286 286 284 284 282 280 281 280 282 280 278 281 280 282 289 297 297 301 299 295 284 280 288 294 297 301 302 302 302 300
302 302 302 302 302 302 301 301 301 301 301 301 298 291 292 294 295 295 291 287 290 288 291 292 294 292 297 294 291 289 292 293 294 292 289 285 296 300 294 290 294 298 292 292 285 289 286 285 286 290 283 283 286 292 285 285 290 287 287 286 281 282 283 280 280 279 280 277 277 283 282 291 301 301 296 296 287 285 289 296 302 303 301 302 303 303 302
302 302 302 302 302 302 302 301 301 301 301 301 299 293 291 293 294 295 296 293 289 285 287 296 297 296 296 295 296 296 294 291 293 291 294 294 300 293 286 286 292 293 288 288 287 287 289 285 286 287 290 289 290 288 282 282 287 294 293 288 288 289 283 282 281 281 279 278 277 280 285 292 301 296 289 297 299 297 297 301 301 303 302 302 303 304 303
302 302 302 302 302 303 302 302 302 301 301 301 300 295 290 293 295 296 296 294 289 286 289 294 296 295 297 299 299 300 299 299 300 300 295 291 297 299 295 298 297 296 296 297 288 288 292 291 290 285 286 287 292 287 289 282 282 288 293 291 285 291 287 284 284 289 284 283 283 289 290 296 302 302 300 301 304 304 303 303 303 304 305 304 303 305 304
302 302 302 302 302 302 302 302 302 302 301 301 299 295 291 292 292 296 294 289 291 293 295 294 296 297 300 301 303 303 303 305 303 302 301 296 288 296 299 296 296 303 303 300 295 293 292 293 288 291 287 290 289 286 290 286 282 287 287 292 291 296 297 293 291 292 293 294 294 297 297 298 302 303 303 304 304 305 304 305 304 303 304 305 306 307 306
302 302 302 302 302 302 302 302 302 302 302 301 300 295 293 293 294 293 291 291 287 285 290 293 291 287 291 295 301 304 304 302 304 304 306 303 291 289 300 304 306 305 301 301 302 298 293 292 293 295 288 293 295 286 285 285 287 291 286 286 291 297 298 293 289 293 287 286 291 297 299 300 301 301 302 303 304 304 304 304 303 304 305 306 305 305 306
302 302 302 302 303 302 302 302 302 302 302 302 300 299 297 294 293 293 289 283 284 285 283 286 289 296 300 303 304 302 302 304 304 303 303 305 302 296 295 302 308 302 301 303 301 294 286 292 292 290 286 295 295 285 291 286 286 293 284 286 291 292 299 291 291 288 284 287 296 297 298 301 303 300 301 302 303 304 303 303 304 303 304 304 305 306 306
303 303 303 302 303 303 303 303 302 302 302 301 301 295 293 292 293 294 292 291 290 289 284 285 290 299 302 300 298 301 304 303 303 303 304 305 306 304 302 305 306 308 306 306 303 296 290 288 289 289 287 289 299 289 288 293 289 293 290 287 294 296 296 288 292 290 293 295 296 297 299 300 301 302 302 303 303 303 303 303 303 304 305 304 305 303 306
303 303 303 303 303 303 303 303 303 302 302 302 299 295 294 294 294 292 290 290 288 284 286 285 291 296 299 297 301 303 303 302 301 300 301 303 305 305 305 303 302 304 304 301 300 291 289 289 287 290 293 291 296 296 294 293 293 289 289 297 300 296 289 294 291 289 288 288 293 298 290 290 298 300 302 303 304 304 305 304 305 304 304 304 303 304 303
303 303 303 303 303 303 303 303 303 303 302 302 299 295 295 293 293 294 294 293 290 284 285 286 288 293 299 296 301 301 301 301 300 301 301 302 304 305 304 302 301 301 300 297 291 290 289 290 292 288 290 297 294 290 296 295 293 291 292 296 300 296 297 288 283 286 285 291 295 298 294 296 299 301 302 303 304 304 304 303 303 304 304 304 303 303 304
303 303 303 303 303 303 303 303 303 302 302 301 295 294 293 297 295 296 297 297 295 292 290 290 294 293 286 292 300 298 299 300 300 301 301 300 300 303 303 302 301 298 299 292 287 288 288 287 288 293 293 299 295 290 292 288 286 286 290 297 300 300 302 299 295 294 297 298 300 300 297 297 300 302 302 303 304 305 304 304 304 303 302 303 303 304 304
303 304 304 304 303 303 303 303 303 302 302 298 294 289 285 295 301 299 300 300 298 296 290 287 284 286 294 294 293 296 297 300 300 300 298 298 299 301 302 300 298 301 296 290 290 290 286 289 288 293 302 303 295 288 288 286 286 288 293 297 299 300 302 303 301 299 298 301 301 301 301 301 302 302 303 302 303 305 304 303 303 303 304 303 305 304 303
304 304 304 304 303 303 303 303 303 303 302 295 290 281 280 281 295 301 300 299 298 292 288 287 285 287 287 293 294 294 297 299 297 297 297 298 297 299 298 299 297 299 293 292 294 288 287 290 288 295 301 297 289 288 287 285 285 287 295 298 298 300 302 302 301 299 302 302 301 302 302 301 301 302 302 301 301 301 300 300 302 305 304 303 303 304 305
304 304 304 303 303 303 303 303 303 302 299 294 290 285 284 287 294 297 298 299 297 290 285 282 281 281 283 288 294 297 298 297 298 298 295 297 296 297 296 298 294 297 292 288 288 289 289 286 288 292 294 297 293 289 288 285 285 286 293 297 299 300 301 301 301 302 302 302 301 300 299 299 299 299 298 301 300 300 301 301 302 302 303 302 302 303 304
303 304 304 303 303 303 303 303 303 302 298 299 301 301 301 300 300 300 299 297 292 287 288 283 279 281 281 285 293 295 298 296 294 294 292 294 295 295 291 296 296 297 300 292 289 288 288 288 287 289 293 296 289 289 287 283 286 289 295 299 299 299 300 301 301 300 300 300 298 296 295 297 299 300 301 300 300 300 300 301 302 300 301 302 302 302 303
303 303 303 303 303 303 303 303 303 302 301 297 292 293 296 300 300 300 298 292 287 287 286 282 279 279 281 288 287 292 298 292 289 292 287 291 297 295 288 293 291 289 291 290 287 289 286 289 289 286 292 290 287 287 286 286 289 293 296 298 298 299 299 298 298 300 301 301 300 299 300 299 298 299 299 300 301 300 300 299 300 300 299 300 300 300 299
303 303 303 303 303 303 303 302 297 295 292 291 291 293 296 301 301 300 299 291 284 282 283 282 283 279 279 279 278 288 297 294 289 288 288 288 295 293 292 290 286 287 288 293 286 286 287 290 291 289 286 287 288 287 283 286 290 293 297 298 298 298 297 297 298 298 299 300 301 300 299 299 300 299 299 300 300 299 298 299 298 298 298 298 298 299 299
303 303 303 303 303 302 297 297 295 293 290 288 291 299 304 305 304 301 298 297 294 285 281 280 280 279 279 277 279 286 297 291 292 291 292 288 290 294 289 285 287 287 293 288 283 287 286 290 291 286 283 286 284 286 288 290 292 294 297 298 298 298 297 298 298 298 298 298 300 299 298 298 299 298 297 298 298 298 297 298 298 297 297 296 297 297 298
303 303 303 302 298 293 288 288 296 295 292 295 298 302 303 303 301 302 297 294 298 297 288 282 282 283 283 282 284 286 291 282 288 287 286 288 285 283 285 284 282 283 286 285 285 285 287 291 286 286 285 284 283 287 290 292 295 296 296 298 299 297 298 300 299 298 297 297 299 297 297 297 297 297 297 298 298 298 297 297 297 297 296 295 295 297 296
303 302 296 291 289 284 283 286 292 296 301 299 300 295 292 293 284 287 290 289 293 295 287 289 284 285 286 284 282 289 289 283 288 285 282 284 286 285 283 283 283 284 281 281 283 290 286 286 286 284 282 285 287 291 293 292 295 295 295 297 298 300 301 300 299 298 296 295 295 296 294 294 295 296 296 297 297 296 295 296 296 297 297 297 296 296 297
300 295 291 290 287 283 284 288 296 301 296 296 295 288 283 286 284 282 285 287 288 286 288 288 284 286 284 283 284 289 287 284 282 282 283 285 285 282 283 283 285 283 280 281 283 290 286 282 281 281 281 281 286 291 292 292 293 292 293 296 299 300 301 300 299 299 297 296 295 295 295 294 294 294 295 296 296 296 296 296 296 297 297 297 297 297 297
293 289 286 285 283 285 292 295 299 295 292 286 285 284 281 284 283 279 283 283 282 284 288 285 290 288 287 284 283 282 289 286 281 281 283 285 288 284 283 283 283 281 278 277 280 285 281 280 279 281 279 280 287 292 293 294 293 294 295 296 298 297 298 299 298 297 297 296 296 295 296 296 296 296 296 296 297 296 296 296 295 296 297 296 295 298 296
293 291 289 286 288 289 291 292 292 290 286 283 283 284 282 280 283 283 282 279 281 282 289 289 289 288 289 288 285 283 289 293 290 290 287 286 288 286 282 282 283 281 277 277 282 284 281 279 278 278 279 285 290 292 294 296 296 296 296 297 297 298 298 298 298 298 298 298 297 296 296 296 296 295 296 297 297 296 296 296 296 296 296 297 296 295 295
292 292 292 292 292 292 290 287 286 283 283 285 281 278 281 280 282 282 283 279 280 283 287 290 285 288 288 290 288 287 286 292 290 289 286 285 285 286 281 282 282 278 277 279 282 281 280 277 276 278 280 285 290 294 295 295 295 296 296 296 297 297 297 297 297 297 299 298 297 296 295 296 297 297 298 298 297 296 296 296 296 296 296 295 295 296 295
299 298 296 291 287 283 284 280 281 282 277 278 276 275 279 278 279 279 279 284 287 287 286 295 292 293 293 296 290 292 287 290 289 285 287 285 285 284 282 281 279 278 278 280 280 277 277 275 275 277 282 288 293 294 294 296 296 296 296 297 296 296 297 298 298 297 297 298 297 297 296 296 296 297 298 298 297 297 296 296 296 296 296 296 296 294 293
296 294 289 285 282 281 283 276 284 280 278 279 276 272 275 277 280 281 280 282 284 284 288 288 289 289 285 290 289 288 289 291 289 285 285 284 284 280 279 279 278 280 283 280 278 277 274 275 278 282 287 291 296 294 295 296 296 296 296 296 296 297 297 296 296 297 296 296 296 296 296 296 297 297 298 298 299 297 296 296 296 296 295 296 295 294 293
287 286 284 282 279 282 281 275 285 279 274 276 281 277 278 276 280 282 282 286 288 287 290 290 292 292 289 292 291 289 287 286 286 286 282 285 284 281 279 278 279 281 280 276 276 275 277 277 279 285 289 293 294 293 295 295 296 296 295 294 295 296 296 296 295 295 295 296 296 296 296 296 297 296 296 297 297 298 298 296 295 297 296 296 295 294 292
285 283 282 279 275 280 281 277 279 276 280 281 280 282 281 282 283 284 288 290 289 289 289 290 290 292 289 293 287 284 285 285 286 284 283 283 280 280 282 282 281 278 276 276 275 273 274 277 279 288 292 294 294 295 296 295 295 295 295 294 295 296 296 296 295 296 295 295 296 297 296 296 297 297 296 296 297 296 296 296 296 297 295 295 294 293 292
285 285 283 282 277 280 283 276 277 281 282 283 285 286 286 287 288 288 290 291 290 292 292 292 292 293 289 283 284 285 285 286 284 283 283 281 279 281 283 281 278 276 274 273 273 272 277 279 284 289 291 293 294 295 296 295 296 295 295 295 295 295 295 295 295 295 294 296 297 297 296 296 296 296 296 296 295 296 296 296 296 296 296 295 294 293 293
282 285 283 276 275 279 277 280 283 284 286 286 287 288 288 289 288 288 291 292 293 293 291 291 288 287 286 288 290 283 282 285 284 284 284 282 283 280 277 276 276 276 276 274 271 274 276 279 288 291 293 295 296 296 296 295 295 296 296 295 295 295 295 295 294 294 295 296 296 296 297 297 297 297 297 296 295 296 297 298 299 298 297 296 295 293 293
285 283 280 279 281 280 279 281 282 281 283 285 286 287 286 285 285 287 290 293 293 292 293 292 286 287 285 285 285 284 284 285 282 283 284 281 277 274 275 274 274 275 275 277 276 277 280 285 289 292 293 294 295 297 297 296 296 296 296 296 296 296 295 296 295 294 294 295 296 296 296 297 297 296 296 296 296 296 296 298 299 298 297 296 295 294 292
283 282 282 279 278 279 280 281 280 279 281 283 283 282 283 283 284 286 292 292 293 292 292 289 287 287 285 285 282 283 284 285 284 284 280 278 277 278 276 274 274 275 275 278 278 279 283 286 290 291 292 294 294 296 297 296 295 297 297 297 297 296 296 296 295 294 294 294 295 296 296 296 297 297 297 297 297 297 297 299 300 299 297 296 296 294 293
285 281 279 280 278 277 278 274 275 276 278 280 281 282 283 282 284 285 292 293 292 289 286 285 286 286 285 283 281 281 283 286 284 281 279 278 281 279 277 276 276 277 279 281 284 286 286 289 292 292 293 294 295 296 297 298 297 297 297 297 297 297 297 296 296 294 294 295 295 293 296 297 298 299 299 298 297 295 296 297 299 299 298 296 296 295 293
280 278 278 279 280 280 280 280 280 279 280 281 282 284 285 283 286 288 295 294 290 285 284 286 286 285 283 282 284 285 284 283 282 282 282 283 283 282 282 282 283 284 286 285 287 290 290 291 292 294 295 295 295 295 295 297 298 298 298 297 297 297 296 296 295 295 295 295 295 295 297 299 300 300 299 298 297 295 295 295 295 297 297 298 298 297 295
Wind_Speed
23 24 24 25 26 27 27 29 28 25 26 12 9 5 2 3 4 0 6 3 3 3 3 3 3 4 5 5 9 10 8 5 2 2 4 3 5 3 5 5 3 7 7 5 3 3 4 6 6 6 8 11 16 3 13 10 10 1 3 2 7 6 1 4 2 1 1 1 2 3 5 4 3 2 1 3 2 6 7 3 4 6 2 2 1 3 3
23 24 24 25 26 27 27 27 29 27 24 11 8 3 2 4 4 2 2 1 2 0 3 4 3 5 7 7 11 5 7 4 2 3 4 2 5 3 2 3 11 5 7 3 2 2 2 4 5 4 7 3 10 7 7 16 10 3 4 4 3 3 3 6 3 4 2 2 3 1 1 3 2 2 3 5 3 3 3 6 0 3 4 8 7 6 2
23 23 24 25 26 26 27 29 29 27 26 18 5 4 4 4 3 3 1 2 2 1 1 2 6 5 8 10 13 10 2 6 11 6 3 2 4 3 4 7 2 6 5 5 7 8 9 2 7 5 4 2 6 11 7 11 8 10 10 9 2 1 2 2 4 9 9 10 6 6 4 8 3 2 1 3 7 6 2 3 1 3 2 4 5 3 4
23 23 24 25 25 26 27 28 27 28 27 23 5 2 3 3 5 2 1 3 3 3 3 4 4 6 6 10 6 4 5 3 5 9 7 5 5 6 6 6 7 6 4 3 3 3 6 8 3 3 0 2 2 5 10 9 11 15 16 12 2 1 0 2 5 8 8 8 6 5 6 3 4 1 1 4 2 3 5 6 5 4 3 4 5 7 3
23 23 24 24 25 26 27 27 27 28 28 25 6 2 3 1 2 4 8 3 3 3 3 3 2 4 5 4 4 6 8 9 5 8 1 1 2 2 4 2 3 3 4 3 4 3 3 1 2 4 3 3 3 5 8 7 9 9 3 8 1 1 2 2 4 4 4 8 4 5 4 3 3 3 1 3 4 8 7 6 6 5 8 4 0 4 11
22 23 23 24 24 25 26 27 27 29 27 30 5 2 2 3 0 2 0 4 6 10 2 4 7 11 5 4 3 6 9 9 6 2 5 1 3 1 3 2 3 8 6 4 3 5 4 1 2 4 0 6 5 5 3 0 6 8 3 2 2 2 1 3 1 1 1 2 1 0 4 4 4 4 1 4 4 5 7 4 3 6 6 8 5 6 11
20 22 23 23 24 24 25 25 25 27 28 22 3 4 3 1 2 4 5 6 6 6 13 13 9 7 7 2 3 5 9 10 3 2 4 1 2 7 2 8 13 14 14 1 2 1 2 2 3 3 7 5 3 2 5 3 3 5 1 2 1 1 0 1 0 1 5 5 5 2 5 4 3 2 4 4 5 5 6 1 4 5 4 7 11 8 12
20 21 22 22 24 24 24 25 24 23 26 14 5 6 4 5 6 5 4 5 8 7 6 8 7 1 6 3 4 5 5 10 10 5 2 4 5 4 6 11 13 13 10 5 1 2 2 0 2 3 8 7 4 4 4 4 2 3 3 1 1 2 3 4 1 3 3 5 8 4 4 6 4 3 3 1 3 3 2 5 2 6 2 2 11 6 1
20 20 22 22 22 23 23 24 24 20 20 7 8 4 6 4 3 5 8 10 5 6 7 7 7 3 2 1 8 4 8 6 7 8 3 1 3 3 4 10 12 6 7 7 7 5 1 4 7 6 4 5 3 2 1 5 2 1 4 2 2 2 2 1 2 1 3 4 7 6 3 2 2 4 4 3 5 3 1 3 4 4 4 1 2 6 3
19 20 20 21 21 22 22 22 22 19 15 6 5 4 5 5 5 6 5 4 5 7 9 7 6 6 7 8 11 4 6 8 8 3 3 3 3 4 5 6 4 9 7 7 9 11 7 10 10 9 10 11 11 5 11 10 6 3 1 1 1 1 1 2 1 3 1 4 4 4 5 4 2 6 5 3 0 0 0 1 2 3 9 7 6 9 7
18 19 20 20 21 21 21 21 21 20 11 9 7 6 7 6 7 6 3 6 3 4 9 7 6 3 8 13 12 6 5 6 3 3 3 2 4 3 4 9 4 6 5 7 12 12 14 14 12 8 9 11 14 4 14 16 11 7 4 1 1 1 3 1 1 2 1 4 6 2 5 4 4 3 2 4 2 6 5 2 4 4 7 8 8 6 3
17 18 19 20 20 20 20 20 20 20 12 6 5 6 5 6 7 4 3 6 7 3 5 6 6 7 10 15 11 9 11 11 11 3 3 3 7 6 5 4 3 4 8 11 12 12 15 13 13 14 13 9 3 8 11 13 9 8 6 5 2 3 3 1 0 2 1 3 4 6 5 3 4 5 3 2 2 9 7 5 4 1 2 9 5 9 9
16 16 18 19 19 20 20 19 20 19 17 8 5 6 6 7 5 5 5 5 5 8 10 11 13 10 9 13 12 11 8 6 5 5 3 3 6 7 2 3 4 8 7 8 9 6 2 2 2 1 3 5 3 6 9 10 7 6 8 5 6 2 4 0 3 2 3 3 2 4 3 3 5 7 6 2 1 1 11 7 5 6 4 3 11 10 12
16 16 17 18 19 19 18 19 19 19 19 13 7 6 6 6 5 5 4 4 8 4 3 12 7 11 16 15 12 13 9 7 6 3 6 3 6 11 9 3 6 10 13 9 5 2 3 6 3 6 6 7 3 2 2 2 3 8 6 1 5 6 4 3 2 1 2 2 2 2 3 2 3 2 1 0 1 1 6 6 3 5 3 3 5 8 8
16 16 16 16 18 19 18 18 18 19 19 17 6 5 5 4 3 4 4 4 5 11 4 3 9 13 13 14 10 11 9 9 9 8 2 5 3 4 6 12 12 11 10 2 3 3 2 1 3 4 4 4 1 1 2 1 1 4 11 4 4 5 6 2 5 2 3 3 2 2 3 1 3 5 4 4 3 3 4 10 0 6 6 2 3 9 9
16 16 16 16 17 18 19 18 18 18 19 19 7 6 6 3 5 4 5 4 5 8 4 5 6 7 8 10 10 8 7 8 7 6 7 5 6 12 12 11 11 8 5 2 2 3 3 2 0 2 0 1 2 1 1 1 1 1 6 7 8 8 9 6 7 2 2 3 3 2 3 3 3 3 5 4 1 6 3 4 1 3 4 7 1 6 8
16 16 16 16 16 18 19 18 18 17 16 19 9 6 5 5 4 6 6 4 2 8 11 12 7 2 7 8 7 4 7 6 6 6 7 10 10 8 12 11 7 6 10 4 6 6 7 5 1 0 3 1 1 0 3 1 1 1 2 5 7 6 2 3 3 2 1 2 2 0 2 1 1 4 5 3 3 3 6 4 3 5 6 5 2 2 9
16 16 16 16 16 17 18 18 18 17 16 17 9 7 6 3 4 6 4 4 4 7 4 1 6 7 3 3 7 6 4 4 5 3 3 6 5 8 10 7 11 5 5 6 4 5 4 3 4 2 2 3 0 2 0 1 2 2 1 1 1 1 1 2 3 2 1 3 1 1 2 4 2 3 6 4 1 7 5 5 3 4 4 5 1 2 5
15 16 15 16 16 16 17 18 18 18 17 16 10 7 1 2 7 2 4 4 3 7 9 5 8 9 7 5 6 6 4 6 7 5 7 7 4 12 8 1 3 5 8 3 4 4 3 2 1 1 1 6 4 2 3 1 1 0 3 2 1 1 2 1 3 1 1 1 2 2 3 4 1 2 3 3 2 1 2 3 3 1 4 4 2 3 2
14 15 15 16 16 15 16 17 18 17 17 17 10 5 7 6 3 3 6 5 4 9 15 13 5 8 2 6 8 7 9 7 1 3 4 5 8 9 7 6 6 4 7 4 4 2 3 3 1 0 4 2 2 2 3 3 2 1 0 3 4 4 2 2 2 2 1 3 2 1 2 1 1 6 4 6 4 3 3 1 1 2 2 2 4 2 2
13 14 15 15 15 16 16 17 17 17 17 16 11 7 7 0 1 2 3 6 6 9 11 4 4 8 8 11 11 11 9 11 10 5 7 5 6 3 4 2 6 3 2 2 2 3 2 3 4 1 1 0 5 4 1 3 5 2 2 1 2 2 2 1 1 3 3 2 1 1 2 6 4 2 3 2 3 3 3 3 1 1 1 3 2 3 2
14 14 14 15 16 16 16 16 17 16 17 17 15 5 7 3 5 4 5 4 6 9 9 12 10 15 17 15 13 12 14 16 17 10 7 6 4 0 4 2 3 0 1 1 3 2 4 1 1 3 4 4 3 1 1 3 1 4 3 2 2 2 1 3 2 1 1 2 3 3 3 4 4 4 3 1 1 1 3 4 3 3 4 0 2 2 3
14 14 14 14 15 16 16 17 16 16 17 17 12 4 8 9 6 5 6 5 5 7 8 13 11 13 14 14 14 15 13 13 15 11 8 7 4 3 2 1 2 1 1 0 0 1 2 0 1 2 1 0 2 3 1 2 0 3 3 3 2 2 1 1 4 1 0 2 2 1 2 3 5 4 2 4 4 2 3 5 5 4 2 2 1 0 2
15 14 15 15 15 16 16 16 17 16 18 16 12 7 7 5 6 6 4 4 4 8 9 3 2 6 4 11 14 9 7 7 4 4 4 9 4 3 3 3 2 0 1 4 4 1 2 1 1 0 1 3 2 2 2 3 0 1 1 4 3 2 3 2 2 0 6 1 4 1 1 2 4 3 3 3 4 3 2 4 3 2 4 5 2 0 1
15 15 16 15 16 16 16 16 18 18 17 18 14 6 7 6 2 1 4 5 4 3 5 9 8 11 8 8 11 11 9 6 8 10 8 6 11 7 3 5 8 5 2 3 2 2 2 0 0 1 1 2 4 4 2 1 4 1 2 1 2 2 2 1 3 3 3 2 1 1 2 1 2 1 4 4 4 5 5 1 1 3 3 2 3 1 2
15 15 16 16 16 16 16 16 17 17 17 19 16 8 7 9 4 4 4 5 5 5 6 5 9 9 9 15 15 9 11 12 10 9 7 10 12 10 7 1 1 1 2 1 1 0 1 0 1 1 2 1 3 4 2 5 3 1 3 2 3 2 3 0 0 2 0 0 0 1 0 6 6 5 3 1 1 4 4 4 4 5 6 5 5 3 1
16 16 16 16 17 17 17 17 17 17 17 18 11 7 8 10 6 6 6 5 3 4 3 6 7 12 8 16 20 13 9 7 10 10 10 9 12 6 3 3 3 2 3 1 2 2 1 0 1 1 3 2 5 3 1 2 0 0 0 3 1 2 0 1 4 5 2 3 2 1 4 0 1 3 2 3 1 4 5 5 6 5 5 5 6 5 5
16 16 16 16 17 17 17 17 17 16 16 18 10 9 10 8 5 7 7 7 5 3 4 6 9 14 16 16 9 7 13 11 8 8 7 10 4 6 6 7 3 3 2 2 2 2 0 0 4 3 1 1 1 4 0 0 2 1 1 2 1 2 2 3 4 6 3 5 5 4 4 5 2 2 1 2 2 5 6 4 3 4 2 1 4 5 6
17 17 17 17 17 17 17 18 16 14 16 15 8 10 9 3 1 6 6 6 5 5 6 8 9 8 5 10 16 15 11 7 10 9 9 7 7 9 9 8 6 4 3 4 4 2 2 4 2 1 1 5 3 3 1 1 1 2 3 2 1 2 3 2 5 5 1 3 2 4 2 3 2 1 3 3 1 6 5 2 2 3 4 2 4 4 4
17 17 17 17 17 17 18 16 16 14 13 6 6 3 4 2 3 5 7 7 1 4 4 4 6 6 5 5 9 8 11 12 10 10 8 9 2 9 9 7 6 3 3 4 4 2 4 2 2 3 1 1 1 1 0 1 0 3 3 2 4 3 2 3 4 4 3 2 3 3 4 4 2 3 3 3 3 4 4 3 3 5 6 4 0 1 3
18 17 17 18 18 17 18 18 16 14 11 1 3 3 2 1 2 5 6 5 6 5 3 2 7 6 8 5 5 11 12 11 10 10 10 7 5 7 5 5 2 4 1 0 0 3 2 1 0 1 1 1 3 1 1 2 1 2 3 4 3 2 2 2 4 3 4 4 3 4 4 3 2 3 5 5 4 4 4 3 3 3 3 4 4 2 0
18 18 18 18 19 19 19 18 16 12 5 3 4 5 4 3 2 8 11 6 6 3 1 3 5 3 3 5 3 3 8 12 6 3 3 1 2 2 1 3 4 3 4 3 2 1 2 3 2 2 1 2 3 1 2 1 1 3 2 4 4 4 2 1 1 0 1 4 6 6 4 2 1 4 2 0 2 4 3 2 2 2 3 2 2 1 1
18 18 18 19 19 21 21 20 18 11 7 8 12 17 22 27 28 22 13 5 1 2 1 0 3 2 3 7 10 8 3 2 2 0 4 1 2 1 1 1 1 1 1 4 0 2 3 2 1 0 2 1 1 1 1 3 3 4 6 6 5 3 3 0 2 3 3 1 3 3 4 3 1 2 4 2 3 4 4 3 2 3 6 6 6 7 5
18 18 19 20 21 22 22 22 21 16 11 5 6 6 7 15 16 20 6 3 1 1 0 1 2 2 6 6 4 9 2 4 4 2 4 4 2 2 3 1 2 2 1 3 4 0 3 1 2 2 2 1 1 1 1 4 5 4 3 4 4 2 2 4 4 5 4 4 3 4 6 4 2 2 3 4 2 3 2 3 4 5 4 5 5 4 2
17 18 18 20 21 23 25 22 9 1 2 2 4 5 4 9 10 6 7 5 2 0 0 2 1 3 4 4 2 8 3 2 4 2 2 5 1 3 1 1 2 1 4 1 1 1 1 3 4 2 4 1 1 1 4 4 5 2 1 2 4 3 6 4 1 3 4 4 5 5 4 4 5 4 3 1 1 1 3 3 3 3 4 4 4 5 4
16 17 17 19 22 18 8 4 2 2 1 2 5 7 11 6 3 3 9 5 1 1 1 3 2 4 3 3 4 5 2 4 3 2 2 1 2 0 2 3 2 6 0 2 2 0 2 2 3 3 1 1 4 4 6 6 5 4 6 6 6 7 6 8 6 3 3 4 6 5 5 4 5 4 3 2 1 1 3 3 5 4 4 4 4 3 5
16 17 19 17 9 2 2 2 2 2 1 4 11 17 18 8 0 3 3 1 3 2 3 1 3 6 3 4 2 6 4 4 5 4 4 2 4 2 1 1 2 2 1 1 1 1 6 1 1 0 1 3 3 6 8 7 7 7 5 6 6 3 5 6 7 8 6 5 6 5 3 2 4 2 3 1 1 1 4 5 5 5 4 4 4 4 4
15 14 6 3 2 2 2 1 1 3 11 15 11 4 2 2 1 0 1 2 3 3 3 2 8 4 1 2 8 4 4 5 3 3 5 1 0 2 0 1 2 1 1 2 4 5 2 1 1 3 4 5 4 3 2 3 6 5 5 5 6 7 8 8 7 7 6 3 1 1 4 3 1 1 3 4 2 3 4 3 4 4 4 4 4 3 4
8 3 1 1 0 2 2 3 3 12 9 5 2 0 2 0 1 1 2 2 1 3 2 5 7 4 5 6 10 2 3 4 7 2 2 4 1 4 1 0 2 1 1 0 4 1 0 1 0 0 3 3 1 3 2 1 1 2 4 6 7 7 8 6 6 9 8 7 7 5 7 6 5 3 4 4 5 4 4 4 4 4 4 4 5 5 5
1 1 1 1 3 5 4 5 9 8 2 1 1 2 1 1 2 3 1 1 2 2 3 7 5 7 10 13 11 8 2 6 5 5 5 7 1 1 2 1 1 1 1 0 4 1 2 1 1 1 3 2 2 1 1 4 3 1 2 5 5 4 5 6 3 2 5 3 3 3 3 5 5 6 7 7 7 6 4 4 4 4 5 5 4 5 5
2 2 1 3 4 3 4 5 4 1 0 1 0 1 1 1 2 2 1 2 2 3 4 5 2 5 6 7 5 10 5 2 4 3 1 4 4 1 1 1 1 1 1 1 2 1 1 1 0 1 3 3 3 2 1 4 5 4 3 4 6 6 7 6 5 5 7 7 5 4 4 4 5 5 5 7 7 6 5 5 5 5 5 5 6 4 2
1 1 2 3 5 5 4 2 1 0 1 1 1 2 1 2 1 1 1 2 3 2 3 4 3 4 6 11 9 4 4 4 2 1 1 3 2 2 3 0 1 1 1 4 1 2 2 0 0 1 3 4 2 1 5 5 3 5 3 5 6 6 7 7 7 5 7 8 5 5 5 6 6 6 6 7 6 6 5 5 6 6 7 5 5 4 4
5 5 3 2 2 2 1 1 1 1 1 0 1 2 1 1 2 3 2 1 1 2 3 3 3 2 1 2 2 4 5 2 3 2 0 3 1 1 1 0 1 0 3 1 1 1 1 1 1 5 5 4 4 4 4 5 4 5 4 5 6 5 6 7 8 6 5 7 6 5 6 6 6 6 7 8 7 6 4 4 6 5 4 5 5 4 4
2 1 1 1 1 3 1 3 1 2 1 1 2 2 2 2 4 1 1 3 1 2 2 3 5 5 6 3 1 1 1 3 1 0 1 1 0 0 0 1 3 4 1 1 1 1 3 2 6 5 6 4 3 4 5 5 5 5 4 4 5 6 6 5 5 6 5 4 4 4 6 7 6 4 5 6 8 9 6 5 5 6 4 5 5 4 3
0 0 1 1 1 2 1 3 1 1 2 2 1 2 1 2 2 1 4 2 4 9 10 8 2 5 7 5 2 3 1 2 1 2 2 1 1 0 1 2 2 1 1 2 0 1 1 1 3 2 4 5 5 5 5 5 5 5 4 3 5 6 6 5 4 4 4 5 4 6 7 6 7 5 4 5 5 6 8 6 4 5 5 5 5 4 2
1 1 0 1 3 2 2 2 0 2 1 1 0 2 4 5 5 6 4 4 8 8 9 10 11 9 5 3 3 4 4 1 2 2 1 1 2 2 3 0 2 0 0 0 1 1 2 4 6 7 6 7 6 5 6 5 4 4 7 6 6 8 7 6 5 5 4 4 6 8 6 6 7 7 5 4 5 4 5 5 4 5 4 5 4 4 3
0 0 1 0 2 3 1 2 2 2 1 3 2 4 4 6 6 6 5 4 7 7 9 9 8 6 5 1 2 2 1 1 1 2 1 1 2 2 1 1 2 1 2 1 1 2 2 6 5 3 4 5 5 5 5 5 4 5 6 5 6 7 6 7 5 5 4 5 8 8 6 6 5 5 5 5 4 4 5 5 5 5 5 5 4 4 4
2 0 1 1 3 1 2 3 2 4 3 3 5 5 6 5 5 7 6 6 6 8 10 10 7 2 2 1 1 3 2 2 1 2 1 2 0 1 1 0 1 1 2 3 3 4 4 4 5 7 7 7 7 7 6 5 5 6 6 6 7 7 6 6 5 4 4 6 6 7 6 6 7 6 6 6 5 2 3 4 5 4 5 4 4 4 5
1 1 2 2 1 2 2 2 5 7 7 6 5 4 5 6 6 7 7 5 7 8 10 10 5 1 2 1 1 0 1 1 1 3 1 0 1 3 1 1 1 1 4 3 3 5 5 6 6 7 6 5 6 8 7 7 7 7 7 7 6 7 7 6 5 4 4 5 6 7 6 6 7 6 5 4 5 3 3 5 5 5 6 6 5 4 3
1 1 1 1 2 4 4 4 4 7 5 4 5 6 6 6 7 8 6 6 5 8 9 4 1 1 1 0 1 1 1 2 2 1 1 2 2 1 2 0 1 3 1 2 3 4 6 6 5 5 5 6 6 7 7 6 8 8 6 6 6 5 7 7 5 5 4 4 5 6 6 5 6 6 8 8 6 4 4 5 6 5 4 4 5 4 4
1 1 2 3 5 5 2 2 1 5 7 8 7 8 6 9 8 9 5 4 6 6 3 2 2 1 1 1 1 0 2 1 2 2 2 2 1 2 2 1 2 3 6 6 7 8 6 4 8 8 6 6 6 6 7 8 8 8 6 6 6 6 6 6 6 4 4 5 5 6 3 4 4 6 5 4 4 4 3 3 5 6 5 4 4 5 5
1 2 3 3 5 6 7 6 5 7 8 9 8 8 5 8 7 8 4 4 5 4 5 3 1 1 0 1 2 1 1 1 2 1 1 2 1 2 1 1 4 6 6 7 6 1 2 4 7 9 8 8 7 6 6 6 6 6 6 7 7 8 7 6 5 5 5 4 4 4 3 5 6 6 7 6 4 4 4 3 3 5 5 5 5 6 6
Wind_Direction
348 350 349 349 349 349 349 348 347 346 344 346 346 312 297 310 258 172 151 164 134 93 231 199 200 230 246 270 270 255 261 238 256 291 271 229 197 217 225 240 219 226 222 236 229 198 249 246 223 195 187 208 210 259 175 193 230 195 304 191 222 133 147 183 223 237 305 311 336 119 158 138 166 218 144 112 180 169 162 162 188 148 217 88 21 177 252
349 350 350 349 350 350 350 348 347 345 347 340 318 300 300 295 289 294 158 218 116 327 284 309 236 267 271 263 261 262 256 236 235 234 254 244 163 208 231 228 210 256 209 211 220 184 357 263 232 234 185 216 196 207 140 183 222 140 231 178 234 156 263 122 145 103 147 320 341 344 357 108 136 185 239 193 140 134 188 119 129 163 232 166 120 192 252
351 351 351 350 351 351 350 349 347 344 342 345 314 314 301 277 226 236 189 249 156 210 240 256 298 299 305 311 316 330 258 212 223 198 239 227 223 222 234 222 225 248 240 255 245 243 199 256 282 220 157 217 162 180 184 188 206 220 242 259 168 117 240 97 129 155 161 190 186 205 188 191 233 186 220 218 146 160 122 163 96 145 284 132 136 214 258
351 353 353 352 352 352 352 350 347 345 342 343 341 297 311 347 349 306 193 200 199 210 246 260 258 300 315 322 309 296 301 300 221 206 257 219 250 239 263 277 248 261 282 259 233 260 188 179 291 360 178 164 63 142 203 198 200 217 232 243 106 147 193 104 152 142 181 199 203 233 135 132 162 223 125 254 129 126 113 115 111 190 215 184 233 165 120
352 352 354 354 354 354 354 353 349 347 342 341 332 290 183 294 42 321 338 296 182 226 220 260 228 280 324 305 320 313 323 306 304 167 257 214 234 273 211 248 355 292 331 312 301 251 301 230 236 272 245 143 148 173 188 175 201 162 124 276 83 60 8 331 118 145 188 193 208 206 137 132 166 114 241 269 153 140 120 129 197 171 108 219 266 175 131
354 352 353 355 356 356 356 357 354 349 345 340 0 21 326 7 11 295 152 310 313 328 358 299 304 287 274 244 289 292 311 326 335 283 226 269 274 303 322 254 260 316 307 276 287 323 322 344 281 296 191 97 36 20 1 32 203 147 155 333 99 132 204 273 211 300 257 191 215 158 126 134 151 153 164 236 162 112 123 195 185 122 150 205 202 189 150
355 354 353 354 357 358 358 359 359 353 345 341 331 23 337 293 317 277 350 328 294 293 283 298 280 286 313 276 283 296 325 328 327 310 318 66 302 25 320 334 344 336 329 348 217 323 30 333 330 359 19 34 78 82 18 316 306 107 51 357 14 49 296 256 156 349 352 354 11 108 129 129 119 127 184 203 135 171 137 155 157 152 222 183 157 189 172
357 355 354 354 357 359 360 360 1 359 346 340 2 43 354 20 344 328 305 248 284 286 308 320 317 191 320 328 299 314 318 324 333 336 350 339 330 343 17 325 332 327 318 316 355 245 200 88 331 327 62 327 210 173 177 179 342 104 115 157 301 108 263 252 10 54 332 321 14 44 123 133 174 236 216 162 131 146 139 118 144 95 37 311 150 139 186
360 358 355 354 354 359 1 1 2 3 353 13 10 7 42 320 289 293 315 318 308 315 331 331 329 352 328 16 329 324 338 323 329 306 265 274 332 36 297 317 321 315 332 328 306 296 218 244 219 256 268 250 236 114 222 114 171 263 134 199 309 78 259 47 37 73 316 350 31 344 83 108 177 221 244 255 102 103 224 129 212 118 182 43 107 118 201
359 0 357 355 355 356 2 2 2 5 1 19 348 340 340 304 279 308 300 293 314 337 324 321 325 16 355 343 317 299 276 259 290 316 281 61 92 14 323 317 359 307 327 320 299 295 284 259 255 230 238 244 267 232 157 152 179 180 177 218 127 172 138 42 38 75 285 306 21 341 94 59 331 270 237 228 149 190 67 311 131 169 147 120 153 208 189
357 359 359 357 356 355 358 4 2 5 5 14 354 324 329 339 331 325 274 301 298 10 330 319 14 322 320 327 323 305 292 338 337 14 299 335 300 281 300 310 343 288 309 276 265 264 264 263 270 280 270 277 258 205 165 164 175 157 172 83 328 44 72 50 139 113 271 336 331 352 105 175 233 230 199 176 176 160 140 200 166 171 142 188 189 192 163
351 355 358 358 355 355 355 359 4 3 7 3 329 310 315 317 306 275 304 338 300 325 342 294 323 309 326 324 321 310 347 348 340 301 263 274 288 310 284 272 241 280 221 216 256 267 274 280 279 268 253 237 173 141 141 166 175 155 143 134 171 80 67 12 141 85 60 340 9 84 170 232 241 281 283 227 235 128 116 73 10 33 118 100 86 118 156
342 350 354 356 355 355 355 354 1 1 0 354 347 328 321 321 300 307 307 311 294 332 339 316 312 296 303 325 336 319 324 315 330 325 242 290 312 314 217 211 199 242 271 281 279 280 210 286 297 329 306 355 20 67 93 141 156 149 140 148 116 115 84 113 22 96 34 45 46 114 210 239 302 303 302 273 112 119 89 32 15 33 349 131 149 176 165
339 343 347 351 354 355 354 353 355 359 357 356 342 325 314 328 332 317 325 328 299 280 301 293 297 331 339 332 331 323 320 332 331 325 3 313 302 295 296 246 255 281 284 291 298 358 18 23 18 14 343 5 8 31 300 149 171 118 91 356 102 132 98 73 18 39 138 202 125 185 298 9 351 20 64 151 178 122 143 123 12 314 340 325 174 172 165
342 341 342 347 350 353 353 352 353 356 356 354 330 319 318 314 304 308 288 289 292 299 281 237 333 326 325 320 328 329 344 336 351 349 300 271 276 253 273 293 301 300 292 320 340 37 104 83 27 28 338 40 106 250 306 101 310 112 134 150 113 118 103 248 96 302 121 125 44 13 34 113 275 244 276 289 219 150 159 103 337 320 332 6 153 176 189
342 341 340 343 346 350 351 350 351 354 355 351 339 335 312 321 307 274 304 294 304 311 265 203 329 308 323 305 307 316 337 328 336 313 326 322 313 329 333 331 321 319 335 51 33 68 26 73 283 74 289 230 235 71 335 345 40 350 66 95 70 53 95 142 110 235 27 35 106 179 133 235 209 271 260 277 201 143 129 72 29 269 286 309 327 159 191
340 341 341 341 343 347 349 350 348 354 353 354 341 340 307 339 332 343 315 291 236 251 277 296 284 316 309 303 327 354 349 328 354 360 332 329 327 320 317 333 320 7 0 76 13 49 22 19 44 173 270 238 46 190 270 59 72 30 351 47 54 56 13 57 38 42 341 142 85 286 193 131 334 257 271 248 180 83 62 176 259 264 296 287 293 144 162
337 338 340 340 342 345 347 349 348 348 352 351 345 329 300 327 324 327 296 293 307 279 256 194 23 333 291 273 295 300 310 305 340 279 231 283 305 339 333 342 344 343 14 68 359 56 31 56 40 353 321 281 155 68 198 260 135 212 162 158 113 45 6 82 175 155 4 84 291 344 322 293 260 258 271 274 201 73 99 193 233 259 277 292 286 285 156
334 336 336 338 338 340 345 348 347 345 348 351 341 317 251 339 322 318 291 297 296 277 260 340 299 251 252 258 260 284 278 297 291 308 314 338 341 324 303 300 34 352 355 29 38 50 30 326 17 68 328 319 7 18 299 51 238 261 96 64 56 14 95 341 85 93 179 177 116 209 236 243 233 264 215 236 66 97 194 231 209 213 281 314 343 331 134
330 331 333 335 335 336 342 346 346 346 345 349 350 314 292 305 288 9 348 316 294 276 285 281 242 247 250 299 306 309 315 313 194 310 326 312 304 332 25 4 336 24 344 34 51 327 74 336 299 37 30 327 284 286 356 307 353 114 88 174 128 208 119 231 176 218 69 54 68 30 124 259 57 323 356 30 97 225 207 241 307 219 253 45 353 324 317
326 326 331 332 331 332 336 341 344 345 344 343 348 331 320 183 318 346 288 297 299 302 294 262 226 243 274 275 260 256 256 257 278 310 286 291 304 49 17 289 296 351 339 35 43 323 2 333 342 19 234 317 294 41 14 288 317 321 75 145 115 201 82 302 271 174 155 107 120 176 215 255 301 110 133 263 161 188 166 140 344 302 157 48 20 344 315
322 324 326 328 330 332 331 332 336 341 342 341 341 322 290 299 320 314 300 264 248 230 254 287 298 285 276 260 254 237 236 244 251 233 258 286 318 163 193 228 275 254 253 45 22 350 4 303 15 38 9 315 4 73 202 47 359 304 320 58 56 318 137 177 144 253 124 190 204 246 245 241 305 70 123 160 354 59 159 129 121 49 357 201 83 22 14
318 320 324 326 327 328 329 329 329 331 337 340 337 317 307 314 316 318 310 290 247 256 264 275 278 274 267 260 233 236 239 233 251 252 214 225 287 292 243 204 279 239 275 131 215 193 220 83 286 159 39 320 344 319 308 137 188 326 11 314 182 277 232 208 79 50 300 81 154 199 339 355 356 16 71 103 76 87 102 81 57 5 327 333 102 19 92
312 316 320 323 324 325 325 325 324 325 328 334 334 314 309 304 302 322 310 246 275 300 290 237 357 315 311 315 321 303 273 248 227 272 223 182 220 278 308 244 204 331 250 226 186 187 237 134 221 62 91 263 53 24 334 351 295 260 50 343 335 291 5 39 106 233 71 136 310 31 150 351 351 357 17 54 76 50 83 77 72 38 18 15 354 229 92
309 312 315 317 320 321 320 319 321 323 324 327 328 301 285 282 227 349 347 328 332 6 299 312 291 251 276 289 289 276 276 294 317 287 286 202 205 195 210 218 176 168 231 262 105 54 44 36 324 63 123 270 94 301 265 64 309 100 77 264 13 332 33 53 29 47 106 192 195 284 301 337 6 91 95 74 34 25 15 26 83 78 52 41 338 104 105
306 307 310 312 315 316 317 316 319 321 322 325 328 315 302 282 250 196 206 259 259 261 280 292 281 303 329 326 312 292 302 299 281 277 250 236 230 214 215 218 228 178 120 113 91 176 145 54 133 156 127 277 157 182 217 204 195 225 138 220 195 264 25 127 237 115 312 348 45 304 293 37 25 22 26 76 129 80 20 5 22 49 42 18 25 28 322
304 305 305 307 310 312 314 316 319 322 323 322 318 303 284 277 233 193 195 213 279 294 237 259 280 299 334 308 290 305 300 296 301 290 280 249 231 214 175 204 203 109 126 69 21 128 72 104 113 243 177 227 173 214 176 327 167 191 243 271 331 57 80 254 70 84 138 165 190 125 94 248 338 10 8 30 26 79 55 31 28 15 45 46 34 9 12
302 302 303 303 307 309 312 316 319 322 320 321 319 300 283 269 233 188 191 201 196 229 285 287 304 298 305 276 271 301 301 300 285 285 291 305 274 185 199 215 171 120 147 137 360 350 79 337 251 231 151 333 42 297 250 217 50 42 303 263 200 143 202 130 134 157 213 245 237 195 149 142 196 165 70 40 41 75 65 38 359 351 3 1 74 40 16
299 300 300 301 303 306 310 314 318 320 322 329 329 311 300 285 284 157 178 181 217 277 274 275 276 285 282 297 315 311 307 308 302 296 291 281 227 203 204 207 194 180 103 91 128 166 176 233 193 173 191 211 124 261 39 232 158 213 237 236 198 231 180 162 184 151 242 215 207 164 125 162 180 208 95 70 77 91 79 67 47 11 4 348 97 109 94
299 299 299 301 302 304 308 310 315 319 324 340 347 335 345 41 73 96 106 94 76 277 291 323 317 267 298 306 284 288 299 304 299 301 300 313 234 191 198 197 223 179 135 157 158 220 225 197 276 282 262 103 147 192 53 217 148 249 265 266 255 294 281 244 160 131 175 218 190 169 133 116 136 138 100 77 40 92 91 51 28 19 2 350 54 89 117
297 298 300 301 302 302 304 307 311 311 316 15 37 359 24 352 189 157 101 47 28 336 274 236 252 300 307 246 252 278 282 292 298 301 296 277 203 191 201 184 224 144 143 93 192 228 138 274 149 294 345 85 117 113 187 134 253 309 260 227 227 226 165 193 216 210 153 149 95 76 89 99 158 79 34 28 31 58 54 6 342 0 7 18 6 315 222
298 299 298 298 298 300 300 302 305 303 286 249 239 198 201 219 274 293 300 346 348 325 273 330 316 325 275 294 257 269 285 282 275 269 290 181 265 241 272 186 217 184 147 165 205 100 231 210 152 242 188 224 97 151 81 103 184 243 241 233 223 220 213 216 172 82 65 123 95 62 47 8 7 135 195 250 38 46 69 31 343 332 356 26 349 344 142
299 299 298 297 299 301 302 303 301 296 271 266 251 252 259 265 270 272 284 310 313 213 179 150 238 275 277 269 312 300 217 335 332 302 282 245 231 83 309 308 110 91 315 96 285 212 218 148 147 42 254 84 113 158 129 190 216 235 206 192 214 210 222 301 123 120 119 125 129 141 189 185 207 198 159 153 73 54 35 10 319 21 25 16 3 354 352
301 301 300 299 299 301 303 302 301 296 292 269 263 248 248 248 254 260 247 112 198 233 132 173 283 267 264 315 341 281 359 346 279 318 292 289 208 113 230 59 0 136 277 176 252 60 329 73 199 221 336 289 66 87 283 260 247 254 228 230 238 240 67 102 119 96 97 83 77 129 158 175 133 93 68 62 37 8 22 26 41 40 9 17 3 347 327
302 303 300 298 299 303 304 303 305 137 181 247 259 257 254 252 230 230 155 153 111 324 114 272 208 290 321 338 307 281 303 341 308 265 199 271 141 183 232 113 332 107 273 99 40 183 198 239 162 100 241 293 81 214 244 251 281 255 213 195 226 132 89 83 63 160 141 135 113 116 117 113 104 112 132 153 69 42 52 10 40 71 38 356 352 347 359
303 301 298 303 307 303 303 321 122 126 154 233 236 257 251 234 210 187 171 201 203 176 170 248 182 222 192 269 287 277 312 308 256 301 245 252 347 330 98 119 164 247 222 108 201 141 208 239 98 258 277 119 226 197 229 205 214 215 180 190 200 168 178 171 170 192 159 139 137 131 118 110 130 176 188 195 163 54 71 42 11 45 64 30 349 342 23
303 305 309 310 309 33 307 234 183 172 257 259 275 279 277 276 169 122 115 234 261 168 201 233 277 246 185 251 277 275 16 324 322 336 331 332 237 287 67 59 211 263 49 4 2 197 254 76 102 154 211 197 248 231 230 212 195 180 195 196 191 176 143 151 158 143 125 131 127 134 121 134 185 202 151 169 164 110 68 65 79 75 59 36 16 35 17
306 307 315 332 7 335 315 314 138 292 324 308 312 326 10 72 77 88 152 209 237 181 236 183 243 253 269 234 251 255 351 278 16 359 304 242 25 302 95 122 220 125 235 226 243 189 91 50 166 172 260 250 258 263 244 225 190 183 170 158 161 171 159 158 150 123 116 90 89 109 51 78 88 191 160 200 182 85 88 114 97 99 97 81 69 71 52
305 298 335 247 156 275 229 236 304 337 329 273 172 72 298 149 76 276 208 200 223 211 205 190 240 188 207 238 262 282 234 297 334 2 291 283 80 305 349 107 291 63 295 358 291 59 185 324 334 21 264 301 306 239 210 215 283 180 168 168 166 167 152 158 155 146 158 175 187 190 156 160 149 174 170 110 75 92 119 104 82 73 80 89 93 81 70
35 312 274 292 236 242 276 302 346 346 302 323 281 122 243 220 131 259 204 162 255 236 180 230 215 206 200 216 239 283 180 170 210 247 224 299 227 174 264 89 260 93 248 135 247 38 115 216 281 94 285 278 258 266 134 183 116 37 104 129 126 127 133 134 143 130 129 123 117 135 149 146 143 141 134 128 125 110 88 76 83 82 83 91 89 82 77
236 262 291 251 269 286 282 305 326 225 177 282 326 279 130 280 228 211 230 229 208 234 191 213 183 220 217 215 205 246 253 209 240 177 158 241 259 87 51 252 242 93 276 274 274 68 79 80 344 194 235 236 219 209 147 80 69 45 51 103 122 129 118 108 116 118 103 99 98 94 103 119 113 113 123 134 132 127 130 126 102 94 90 80 75 77 110
235 212 255 292 270 273 312 325 146 15 303 205 143 255 213 219 252 318 178 207 233 231 235 192 236 212 228 194 202 187 269 204 195 176 174 269 286 165 222 248 9 109 237 234 140 58 81 178 289 279 260 249 250 205 110 100 102 97 82 92 108 115 112 107 98 88 111 117 117 114 109 101 105 112 122 115 117 123 127 108 99 93 99 108 102 89 76
316 306 312 316 339 307 204 321 262 135 125 283 70 315 267 222 214 206 259 231 263 239 257 193 243 232 288 114 240 206 216 203 188 257 146 238 282 56 104 3 61 225 237 293 67 66 85 202 233 248 244 233 198 174 154 146 144 120 119 104 103 110 118 121 121 126 121 117 123 127 119 105 118 130 125 112 105 88 72 86 105 112 111 106 103 101 90
300 295 308 223 284 272 109 293 248 55 328 181 136 201 238 281 303 300 279 273 296 286 307 15 304 315 296 294 194 256 259 279 137 98 309 273 98 232 69 176 211 243 59 43 66 157 213 214 202 215 207 199 208 168 145 143 136 124 93 63 80 91 105 111 118 109 87 68 84 93 84 104 111 100 104 112 122 126 127 120 120 117 118 111 108 114 116
19 285 200 326 277 264 58 303 255 156 217 252 189 215 216 215 256 252 256 273 308 308 316 308 260 309 266 277 303 264 159 226 313 119 242 175 225 252 116 248 246 35 152 234 315 321 353 289 280 253 179 173 189 175 150 146 140 134 138 83 75 95 101 94 76 84 102 109 103 76 89 107 107 111 114 121 126 131 131 140 149 125 126 116 112 103 129
170 212 225 208 289 276 177 253 276 289 279 175 95 358 330 302 304 303 303 316 306 311 309 311 304 280 260 199 192 242 297 113 157 223 197 96 105 240 231 215 72 66 2 50 119 203 209 233 238 213 190 177 169 174 154 162 147 118 100 106 111 102 105 102 101 104 113 96 88 98 104 102 115 120 125 135 133 120 120 140 150 130 115 99 108 128 149
327 320 118 268 265 274 296 252 248 226 285 322 329 330 313 296 284 267 271 282 298 305 306 292 275 272 264 304 344 313 271 268 207 264 68 68 187 255 18 114 226 178 152 249 247 247 260 257 236 215 198 170 161 157 149 153 151 132 136 135 118 119 119 112 111 109 106 92 105 108 113 116 117 122 123 109 118 139 148 143 130 134 128 132 136 124 112
181 217 121 202 243 230 230 248 293 306 309 302 316 314 292 300 315 312 306 310 314 323 314 312 309 322 351 291 144 237 263 306 355 304 190 223 23 40 16 32 286 241 171 153 223 222 227 244 186 176 202 174 153 147 154 157 154 146 149 141 136 133 126 123 124 124 98 104 118 121 126 128 130 133 131 140 143 158 139 118 119 115 110 118 119 118 116
144 157 205 237 244 272 266 301 351 308 299 308 302 302 319 324 307 295 307 312 322 306 294 286 238 172 260 212 142 344 315 276 99 253 234 48 127 197 149 211 194 267 270 173 203 213 224 221 199 185 169 152 157 157 168 169 162 159 159 158 160 154 138 139 142 153 127 115 134 136 143 146 135 128 133 135 132 155 164 133 136 143 147 146 147 136 129
100 271 225 227 313 283 256 273 288 274 304 318 348 313 317 308 301 299 295 302 311 304 296 271 156 124 229 25 335 346 284 278 218 272 97 176 203 199 75 33 238 188 259 249 225 238 231 207 159 158 171 165 169 166 164 177 161 165 171 164 153 141 147 148 146 159 142 132 155 162 163 153 142 137 140 152 166 173 189 142 144 151 156 158 146 140 148
241 201 245 180 189 244 57 309 274 303 310 305 305 304 310 297 296 296 295 292 318 319 330 5 293 359 45 18 34 72 254 312 327 254 171 199 225 107 150 181 247 224 243 246 233 241 239 184 155 157 162 168 174 173 169 165 167 167 161 150 146 142 144 144 151 141 125 139 141 119 129 146 147 141 142 118 115 121 127 119 143 163 159 158 154 151 160
201 240 246 253 226 242 245 260 278 258 260 272 280 277 279 282 284 288 292 326 339 357 309 283 263 303 29 247 233 226 284 27 236 252 43 344 22 81 344 251 263 271 267 277 295 297 159 162 150 148 157 163 170 168 162 158 157 153 141 134 134 138 144 148 136 142 142 133 121 111 133 138 138 139 135 130 122 116 136 186 200 161 159 172 170 172 174